Year,Month,Day,Hour,Minute,Value (Times are PST for temperature in C)
2016,06,20,00,00,11.70
2016,06,20,00,01,11.70
2016,06,20,00,02,11.70
2016,06,20,00,03,11.70
2016,06,20,00,04,11.70
2016,06,20,00,05,11.70
2016,06,20,00,06,11.70
2016,06,20,00,07,11.70
2016,06,20,00,08,11.70
2016,06,20,00,09,11.70
2016,06,20,00,10,11.60
2016,06,20,00,11,11.60
2016,06,20,00,12,11.60
2016,06,20,00,13,11.60
2016,06,20,00,14,11.60
2016,06,20,00,15,11.60
2016,06,20,00,16,11.60
2016,06,20,00,17,11.60
2016,06,20,00,18,11.60
2016,06,20,00,19,11.60
2016,06,20,00,20,11.50
2016,06,20,00,21,11.50
2016,06,20,00,22,11.50
2016,06,20,00,23,11.50
2016,06,20,00,24,11.50
2016,06,20,00,25,11.50
2016,06,20,00,26,11.50
2016,06,20,00,27,11.50
2016,06,20,00,28,11.50
2016,06,20,00,29,11.50
2016,06,20,00,30,11.50
2016,06,20,00,31,11.50
2016,06,20,00,32,11.50
2016,06,20,00,33,11.40
2016,06,20,00,34,11.40
2016,06,20,00,35,11.40
2016,06,20,00,36,11.40
2016,06,20,00,37,11.40
2016,06,20,00,38,11.40
2016,06,20,00,39,11.40
2016,06,20,00,40,11.40
2016,06,20,00,41,11.30
2016,06,20,00,42,11.30
2016,06,20,00,43,11.30
2016,06,20,00,44,11.30
2016,06,20,00,45,11.30
2016,06,20,00,46,11.30
2016,06,20,00,47,11.30
2016,06,20,00,48,11.30
2016,06,20,00,49,11.30
2016,06,20,00,50,11.30
2016,06,20,00,51,11.20
2016,06,20,00,52,11.20
2016,06,20,00,53,11.20
2016,06,20,00,54,11.20
2016,06,20,00,55,11.20
2016,06,20,00,56,11.20
2016,06,20,00,57,11.20
2016,06,20,00,58,11.20
2016,06,20,00,59,11.20
2016,06,20,01,00,11.20
2016,06,20,01,01,11.10
2016,06,20,01,02,11.10
2016,06,20,01,03,11.10
2016,06,20,01,04,11.10
2016,06,20,01,05,11.10
2016,06,20,01,06,11.10
2016,06,20,01,07,11.00
2016,06,20,01,08,11.00
2016,06,20,01,09,11.00
2016,06,20,01,10,11.00
2016,06,20,01,11,11.00
2016,06,20,01,12,10.90
2016,06,20,01,13,10.90
2016,06,20,01,14,10.90
2016,06,20,01,15,10.90
2016,06,20,01,16,10.90
2016,06,20,01,17,10.90
2016,06,20,01,18,10.90
2016,06,20,01,19,10.90
2016,06,20,01,20,10.90
2016,06,20,01,21,10.80
2016,06,20,01,22,10.80
2016,06,20,01,23,10.80
2016,06,20,01,24,10.80
2016,06,20,01,25,10.80
2016,06,20,01,26,10.80
2016,06,20,01,27,10.80
2016,06,20,01,28,10.80
2016,06,20,01,29,10.70
2016,06,20,01,30,10.70
2016,06,20,01,31,10.70
2016,06,20,01,32,10.70
2016,06,20,01,33,10.70
2016,06,20,01,34,10.70
2016,06,20,01,35,10.70
2016,06,20,01,36,10.70
2016,06,20,01,37,10.70
2016,06,20,01,38,10.70
2016,06,20,01,39,10.60
2016,06,20,01,40,10.60
2016,06,20,01,41,10.60
2016,06,20,01,42,10.60
2016,06,20,01,43,10.60
2016,06,20,01,44,10.60
2016,06,20,01,45,10.60
2016,06,20,01,46,10.50
2016,06,20,01,47,10.50
2016,06,20,01,48,10.50
2016,06,20,01,49,10.50
2016,06,20,01,50,10.50
2016,06,20,01,51,10.50
2016,06,20,01,52,10.50
2016,06,20,01,53,10.50
2016,06,20,01,54,10.50
2016,06,20,01,55,10.50
2016,06,20,01,56,10.50
2016,06,20,01,57,10.50
2016,06,20,01,58,10.50
2016,06,20,01,59,10.50
2016,06,20,02,00,10.50
2016,06,20,02,01,10.50
2016,06,20,02,02,10.50
2016,06,20,02,03,10.50
2016,06,20,02,04,10.40
2016,06,20,02,05,10.40
2016,06,20,02,06,10.40
2016,06,20,02,07,10.40
2016,06,20,02,08,10.40
2016,06,20,02,09,10.40
2016,06,20,02,10,10.40
2016,06,20,02,11,10.40
2016,06,20,02,12,10.40
2016,06,20,02,13,10.40
2016,06,20,02,14,10.40
2016,06,20,02,15,10.40
2016,06,20,02,16,10.40
2016,06,20,02,17,10.40
2016,06,20,02,18,10.40
2016,06,20,02,19,10.30
2016,06,20,02,20,10.30
2016,06,20,02,21,10.30
2016,06,20,02,22,10.30
2016,06,20,02,23,10.30
2016,06,20,02,24,10.30
2016,06,20,02,25,10.30
2016,06,20,02,26,10.20
2016,06,20,02,27,10.20
2016,06,20,02,28,10.20
2016,06,20,02,29,10.20
2016,06,20,02,30,10.30
2016,06,20,02,31,10.30
2016,06,20,02,32,10.30
2016,06,20,02,33,10.30
2016,06,20,02,34,10.30
2016,06,20,02,35,10.30
2016,06,20,02,36,10.30
2016,06,20,02,37,10.30
2016,06,20,02,38,10.30
2016,06,20,02,39,10.30
2016,06,20,02,40,10.30
2016,06,20,02,41,10.30
2016,06,20,02,42,10.30
2016,06,20,02,43,10.30
2016,06,20,02,44,10.20
2016,06,20,02,45,10.20
2016,06,20,02,46,10.20
2016,06,20,02,47,10.20
2016,06,20,02,48,10.20
2016,06,20,02,49,10.20
2016,06,20,02,50,10.20
2016,06,20,02,51,10.20
2016,06,20,02,52,10.20
2016,06,20,02,53,10.20
2016,06,20,02,54,10.20
2016,06,20,02,55,10.20
2016,06,20,02,56,10.20
2016,06,20,02,57,10.20
2016,06,20,02,58,10.20
2016,06,20,02,59,10.20
2016,06,20,03,00,10.20
2016,06,20,03,01,10.20
2016,06,20,03,02,10.20
2016,06,20,03,03,10.20
2016,06,20,03,04,10.20
2016,06,20,03,05,10.20
2016,06,20,03,06,10.20
2016,06,20,03,07,10.20
2016,06,20,03,08,10.20
2016,06,20,03,09,10.20
2016,06,20,03,10,10.20
2016,06,20,03,11,10.30
2016,06,20,03,12,10.30
2016,06,20,03,13,10.30
2016,06,20,03,14,10.30
2016,06,20,03,15,10.30
2016,06,20,03,16,10.30
2016,06,20,03,17,10.30
2016,06,20,03,18,10.30
2016,06,20,03,19,10.30
2016,06,20,03,20,10.40
2016,06,20,03,21,10.40
2016,06,20,03,22,10.30
2016,06,20,03,23,10.30
2016,06,20,03,24,10.30
2016,06,20,03,25,10.30
2016,06,20,03,26,10.30
2016,06,20,03,27,10.30
2016,06,20,03,28,10.30
2016,06,20,03,29,10.30
2016,06,20,03,30,10.30
2016,06,20,03,31,10.40
2016,06,20,03,32,10.40
2016,06,20,03,33,10.40
2016,06,20,03,34,10.40
2016,06,20,03,35,10.40
2016,06,20,03,36,10.40
2016,06,20,03,37,10.40
2016,06,20,03,38,10.40
2016,06,20,03,39,10.50
2016,06,20,03,40,10.50
2016,06,20,03,41,10.50
2016,06,20,03,42,10.50
2016,06,20,03,43,10.50
2016,06,20,03,44,10.50
2016,06,20,03,45,10.40
2016,06,20,03,46,10.40
2016,06,20,03,47,10.40
2016,06,20,03,48,10.40
2016,06,20,03,49,10.40
2016,06,20,03,50,10.40
2016,06,20,03,51,10.40
2016,06,20,03,52,10.40
2016,06,20,03,53,10.40
2016,06,20,03,54,10.40
2016,06,20,03,55,10.40
2016,06,20,03,56,10.40
2016,06,20,03,57,10.40
2016,06,20,03,58,10.40
2016,06,20,03,59,10.40
2016,06,20,04,00,10.30
2016,06,20,04,01,10.30
2016,06,20,04,02,10.30
2016,06,20,04,03,10.30
2016,06,20,04,04,10.30
2016,06,20,04,05,10.20
2016,06,20,04,06,10.20
2016,06,20,04,07,10.20
2016,06,20,04,08,10.20
2016,06,20,04,09,10.20
2016,06,20,04,10,10.10
2016,06,20,04,11,10.10
2016,06,20,04,12,10.10
2016,06,20,04,13,10.10
2016,06,20,04,14,10.00
2016,06,20,04,15,10.00
2016,06,20,04,16,10.00
2016,06,20,04,17,10.00
2016,06,20,04,18,9.90
2016,06,20,04,19,10.00
2016,06,20,04,20,10.00
2016,06,20,04,21,10.00
2016,06,20,04,22,10.00
2016,06,20,04,23,10.00
2016,06,20,04,24,10.00
2016,06,20,04,25,9.90
2016,06,20,04,26,9.90
2016,06,20,04,27,9.90
2016,06,20,04,28,9.90
2016,06,20,04,29,9.90
2016,06,20,04,30,9.90
2016,06,20,04,31,9.80
2016,06,20,04,32,9.80
2016,06,20,04,33,9.80
2016,06,20,04,34,9.80
2016,06,20,04,35,9.80
2016,06,20,04,36,9.80
2016,06,20,04,37,9.80
2016,06,20,04,38,9.80
2016,06,20,04,39,9.80
2016,06,20,04,40,9.80
2016,06,20,04,41,9.70
2016,06,20,04,42,9.70
2016,06,20,04,43,9.70
2016,06,20,04,44,9.70
2016,06,20,04,45,9.70
2016,06,20,04,46,9.60
2016,06,20,04,47,9.60
2016,06,20,04,48,9.60
2016,06,20,04,49,9.70
2016,06,20,04,50,9.70
2016,06,20,04,51,9.70
2016,06,20,04,52,9.70
2016,06,20,04,53,9.70
2016,06,20,04,54,9.70
2016,06,20,04,55,9.70
2016,06,20,04,56,9.70
2016,06,20,04,57,9.70
2016,06,20,04,58,9.70
2016,06,20,04,59,9.60
2016,06,20,05,00,9.60
2016,06,20,05,01,9.60
2016,06,20,05,02,9.60
2016,06,20,05,03,9.60
2016,06,20,05,04,9.60
2016,06,20,05,05,9.60
2016,06,20,05,06,9.60
2016,06,20,05,07,9.60
2016,06,20,05,08,9.60
2016,06,20,05,09,9.60
2016,06,20,05,10,9.60
2016,06,20,05,11,9.60
2016,06,20,05,12,9.60
2016,06,20,05,13,9.70
2016,06,20,05,14,9.70
2016,06,20,05,15,9.70
2016,06,20,05,16,9.70
2016,06,20,05,17,9.80
2016,06,20,05,18,9.80
2016,06,20,05,19,9.80
2016,06,20,05,20,9.80
2016,06,20,05,21,9.80
2016,06,20,05,22,9.80
2016,06,20,05,23,9.80
2016,06,20,05,24,9.80
2016,06,20,05,25,9.80
2016,06,20,05,26,9.80
2016,06,20,05,27,9.80
2016,06,20,05,28,9.80
2016,06,20,05,29,9.80
2016,06,20,05,30,9.80
2016,06,20,05,31,9.80
2016,06,20,05,32,9.80
2016,06,20,05,33,9.80
2016,06,20,05,34,9.80
2016,06,20,05,35,9.80
2016,06,20,05,36,9.80
2016,06,20,05,37,9.80
2016,06,20,05,38,9.80
2016,06,20,05,39,9.90
2016,06,20,05,40,9.90
2016,06,20,05,41,9.90
2016,06,20,05,42,9.90
2016,06,20,05,43,9.90
2016,06,20,05,44,9.90
2016,06,20,05,45,9.90
2016,06,20,05,46,9.90
2016,06,20,05,47,9.90
2016,06,20,05,48,10.00
2016,06,20,05,49,10.00
2016,06,20,05,50,10.00
2016,06,20,05,51,10.00
2016,06,20,05,52,10.00
2016,06,20,05,53,10.10
2016,06,20,05,54,10.10
2016,06,20,05,55,10.10
2016,06,20,05,56,10.10
2016,06,20,05,57,10.10
2016,06,20,05,58,10.10
2016,06,20,05,59,10.10
2016,06,20,06,00,10.10
2016,06,20,06,01,10.10
2016,06,20,06,02,10.10
2016,06,20,06,03,10.10
2016,06,20,06,04,10.20
2016,06,20,06,05,10.20
2016,06,20,06,06,10.20
2016,06,20,06,07,10.20
2016,06,20,06,08,10.20
2016,06,20,06,09,10.20
2016,06,20,06,10,10.30
2016,06,20,06,11,10.30
2016,06,20,06,12,10.30
2016,06,20,06,13,10.30
2016,06,20,06,14,10.30
2016,06,20,06,15,10.30
2016,06,20,06,16,10.40
2016,06,20,06,17,10.40
2016,06,20,06,18,10.40
2016,06,20,06,19,10.40
2016,06,20,06,20,10.40
2016,06,20,06,21,10.50
2016,06,20,06,22,10.50
2016,06,20,06,23,10.50
2016,06,20,06,24,10.60
2016,06,20,06,25,10.60
2016,06,20,06,26,10.60
2016,06,20,06,27,10.70
2016,06,20,06,28,10.70
2016,06,20,06,29,10.70
2016,06,20,06,30,10.80
2016,06,20,06,31,10.80
2016,06,20,06,32,10.80
2016,06,20,06,33,10.90
2016,06,20,06,34,10.90
2016,06,20,06,35,10.90
2016,06,20,06,36,11.00
2016,06,20,06,37,11.00
2016,06,20,06,38,11.10
2016,06,20,06,39,11.10
2016,06,20,06,40,11.20
2016,06,20,06,41,11.20
2016,06,20,06,42,11.30
2016,06,20,06,43,11.40
2016,06,20,06,44,11.40
2016,06,20,06,45,11.50
2016,06,20,06,46,11.60
2016,06,20,06,47,11.60
2016,06,20,06,48,11.70
2016,06,20,06,49,11.70
2016,06,20,06,50,11.80
2016,06,20,06,51,11.80
2016,06,20,06,52,11.80
2016,06,20,06,53,11.90
2016,06,20,06,54,11.90
2016,06,20,06,55,11.90
2016,06,20,06,56,12.00
2016,06,20,06,57,12.10
2016,06,20,06,58,12.10
2016,06,20,06,59,12.10
2016,06,20,07,00,12.20
2016,06,20,07,01,12.20
2016,06,20,07,02,12.20
2016,06,20,07,03,12.20
2016,06,20,07,04,12.30
2016,06,20,07,05,12.30
2016,06,20,07,06,12.30
2016,06,20,07,07,12.40
2016,06,20,07,08,12.40
2016,06,20,07,09,12.40
2016,06,20,07,10,12.50
2016,06,20,07,11,12.50
2016,06,20,07,12,12.60
2016,06,20,07,13,12.60
2016,06,20,07,14,12.70
2016,06,20,07,15,12.70
2016,06,20,07,16,12.70
2016,06,20,07,17,12.80
2016,06,20,07,18,12.80
2016,06,20,07,19,12.80
2016,06,20,07,20,12.80
2016,06,20,07,21,12.90
2016,06,20,07,22,12.90
2016,06,20,07,23,13.00
2016,06,20,07,24,13.00
2016,06,20,07,25,13.00
2016,06,20,07,26,13.10
2016,06,20,07,27,13.10
2016,06,20,07,28,13.10
2016,06,20,07,29,13.10
2016,06,20,07,30,13.20
2016,06,20,07,31,13.20
2016,06,20,07,32,13.30
2016,06,20,07,33,13.30
2016,06,20,07,34,13.30
2016,06,20,07,35,13.30
2016,06,20,07,36,13.30
2016,06,20,07,37,13.40
2016,06,20,07,38,13.40
2016,06,20,07,39,13.40
2016,06,20,07,40,13.50
2016,06,20,07,41,13.50
2016,06,20,07,42,13.60
2016,06,20,07,43,13.60
2016,06,20,07,44,13.60
2016,06,20,07,45,13.60
2016,06,20,07,46,13.70
2016,06,20,07,47,13.70
2016,06,20,07,48,13.70
2016,06,20,07,49,13.70
2016,06,20,07,50,13.80
2016,06,20,07,51,13.80
2016,06,20,07,52,13.80
2016,06,20,07,53,13.90
2016,06,20,07,54,13.90
2016,06,20,07,55,13.90
2016,06,20,07,56,13.90
2016,06,20,07,57,14.00
2016,06,20,07,58,14.00
2016,06,20,07,59,14.00
2016,06,20,08,00,14.00
2016,06,20,08,01,14.00
2016,06,20,08,02,14.10
2016,06,20,08,03,14.10
2016,06,20,08,04,14.10
2016,06,20,08,05,14.10
2016,06,20,08,06,14.10
2016,06,20,08,07,14.20
2016,06,20,08,08,14.20
2016,06,20,08,09,14.20
2016,06,20,08,10,14.10
2016,06,20,08,11,14.20
2016,06,20,08,12,14.20
2016,06,20,08,13,14.20
2016,06,20,08,14,14.20
2016,06,20,08,15,14.20
2016,06,20,08,16,14.20
2016,06,20,08,17,14.20
2016,06,20,08,18,14.20
2016,06,20,08,19,14.20
2016,06,20,08,20,14.20
2016,06,20,08,21,14.30
2016,06,20,08,22,14.40
2016,06,20,08,23,14.40
2016,06,20,08,24,14.40
2016,06,20,08,25,14.50
2016,06,20,08,26,14.50
2016,06,20,08,27,14.50
2016,06,20,08,28,14.50
2016,06,20,08,29,14.60
2016,06,20,08,30,14.60
2016,06,20,08,31,14.60
2016,06,20,08,32,14.60
2016,06,20,08,33,14.60
2016,06,20,08,34,14.70
2016,06,20,08,35,14.70
2016,06,20,08,36,14.70
2016,06,20,08,37,14.70
2016,06,20,08,38,14.70
2016,06,20,08,39,14.70
2016,06,20,08,40,14.70
2016,06,20,08,41,14.70
2016,06,20,08,42,14.70
2016,06,20,08,43,14.70
2016,06,20,08,44,14.70
2016,06,20,08,45,14.70
2016,06,20,08,46,14.70
2016,06,20,08,47,14.70
2016,06,20,08,48,14.70
2016,06,20,08,49,14.80
2016,06,20,08,50,14.80
2016,06,20,08,51,14.80
2016,06,20,08,52,14.80
2016,06,20,08,53,14.80
2016,06,20,08,54,14.90
2016,06,20,08,55,14.90
2016,06,20,08,56,15.00
2016,06,20,08,57,15.10
2016,06,20,08,58,15.10
2016,06,20,08,59,15.20
2016,06,20,09,00,15.20
2016,06,20,09,01,15.20
2016,06,20,09,02,15.30
2016,06,20,09,03,15.30
2016,06,20,09,04,15.30
2016,06,20,09,05,15.40
2016,06,20,09,06,15.40
2016,06,20,09,07,15.50
2016,06,20,09,08,15.50
2016,06,20,09,09,15.60
2016,06,20,09,10,15.60
2016,06,20,09,11,15.70
2016,06,20,09,12,15.70
2016,06,20,09,13,15.80
2016,06,20,09,14,15.80
2016,06,20,09,15,15.80
2016,06,20,09,16,15.90
2016,06,20,09,17,15.90
2016,06,20,09,18,15.90
2016,06,20,09,19,15.90
2016,06,20,09,20,15.90
2016,06,20,09,21,15.90
2016,06,20,09,22,15.90
2016,06,20,09,23,16.00
2016,06,20,09,24,15.90
2016,06,20,09,25,16.00
2016,06,20,09,26,16.00
2016,06,20,09,27,16.00
2016,06,20,09,28,16.00
2016,06,20,09,29,15.90
2016,06,20,09,30,15.90
2016,06,20,09,31,15.90
2016,06,20,09,32,16.00
2016,06,20,09,33,16.00
2016,06,20,09,34,16.00
2016,06,20,09,35,15.90
2016,06,20,09,36,15.90
2016,06,20,09,37,16.00
2016,06,20,09,38,16.00
2016,06,20,09,39,16.10
2016,06,20,09,40,16.10
2016,06,20,09,41,16.10
2016,06,20,09,42,16.10
2016,06,20,09,43,16.10
2016,06,20,09,44,16.10
2016,06,20,09,45,16.10
2016,06,20,09,46,16.10
2016,06,20,09,47,16.10
2016,06,20,09,48,16.20
2016,06,20,09,49,16.20
2016,06,20,09,50,16.30
2016,06,20,09,51,16.30
2016,06,20,09,52,16.40
2016,06,20,09,53,16.40
2016,06,20,09,54,16.40
2016,06,20,09,55,16.40
2016,06,20,09,56,16.40
2016,06,20,09,57,16.40
2016,06,20,09,58,16.50
2016,06,20,09,59,16.50
2016,06,20,10,00,16.60
2016,06,20,10,01,16.60
2016,06,20,10,02,16.70
2016,06,20,10,03,16.70
2016,06,20,10,04,16.70
2016,06,20,10,05,16.70
2016,06,20,10,06,16.70
2016,06,20,10,07,16.80
2016,06,20,10,08,16.80
2016,06,20,10,09,16.80
2016,06,20,10,10,16.80
2016,06,20,10,11,16.80
2016,06,20,10,12,16.80
2016,06,20,10,13,16.90
2016,06,20,10,14,16.80
2016,06,20,10,15,16.90
2016,06,20,10,16,16.90
2016,06,20,10,17,16.90
2016,06,20,10,18,16.80
2016,06,20,10,19,16.90
2016,06,20,10,20,16.90
2016,06,20,10,21,16.90
2016,06,20,10,22,17.00
2016,06,20,10,23,17.00
2016,06,20,10,24,17.00
2016,06,20,10,25,16.90
2016,06,20,10,26,16.90
2016,06,20,10,27,16.80
2016,06,20,10,28,16.80
2016,06,20,10,29,16.80
2016,06,20,10,30,16.80
2016,06,20,10,31,16.80
2016,06,20,10,32,16.70
2016,06,20,10,33,16.70
2016,06,20,10,34,16.80
2016,06,20,10,35,16.80
2016,06,20,10,36,16.80
2016,06,20,10,37,16.80
2016,06,20,10,38,16.80
2016,06,20,10,39,16.80
2016,06,20,10,40,16.80
2016,06,20,10,41,16.70
2016,06,20,10,42,16.70
2016,06,20,10,43,16.70
2016,06,20,10,44,16.70
2016,06,20,10,45,16.80
2016,06,20,10,46,16.80
2016,06,20,10,47,16.80
2016,06,20,10,48,16.80
2016,06,20,10,49,16.90
2016,06,20,10,50,16.90
2016,06,20,10,51,16.90
2016,06,20,10,52,16.90
2016,06,20,10,53,16.90
2016,06,20,10,54,17.00
2016,06,20,10,55,17.00
2016,06,20,10,56,17.10
2016,06,20,10,57,17.20
2016,06,20,10,58,17.20
2016,06,20,10,59,17.30
2016,06,20,11,00,17.30
2016,06,20,11,01,17.40
2016,06,20,11,02,17.50
2016,06,20,11,03,17.60
2016,06,20,11,04,17.60
2016,06,20,11,05,17.60
2016,06,20,11,06,17.70
2016,06,20,11,07,17.70
2016,06,20,11,08,17.70
2016,06,20,11,09,17.70
2016,06,20,11,10,17.70
2016,06,20,11,11,17.70
2016,06,20,11,12,17.70
2016,06,20,11,13,17.80
2016,06,20,11,14,17.80
2016,06,20,11,15,17.80
2016,06,20,11,16,17.80
2016,06,20,11,17,17.80
2016,06,20,11,18,17.80
2016,06,20,11,19,17.70
2016,06,20,11,20,17.80
2016,06,20,11,21,17.80
2016,06,20,11,22,17.90
2016,06,20,11,23,18.00
2016,06,20,11,24,18.00
2016,06,20,11,25,18.10
2016,06,20,11,26,18.20
2016,06,20,11,27,18.20
2016,06,20,11,28,18.20
2016,06,20,11,29,18.30
2016,06,20,11,30,18.30
2016,06,20,11,31,18.30
2016,06,20,11,32,18.40
2016,06,20,11,33,18.40
2016,06,20,11,34,18.40
2016,06,20,11,35,18.50
2016,06,20,11,36,18.50
2016,06,20,11,37,18.60
2016,06,20,11,38,18.60
2016,06,20,11,39,18.60
2016,06,20,11,40,18.60
2016,06,20,11,41,18.60
2016,06,20,11,42,18.60
2016,06,20,11,43,18.60
2016,06,20,11,44,18.60
2016,06,20,11,45,18.70
2016,06,20,11,46,18.70
2016,06,20,11,47,18.70
2016,06,20,11,48,18.70
2016,06,20,11,49,18.70
2016,06,20,11,50,18.70
2016,06,20,11,51,18.70
2016,06,20,11,52,18.70
2016,06,20,11,53,18.70
2016,06,20,11,54,18.60
2016,06,20,11,55,18.60
2016,06,20,11,56,18.50
2016,06,20,11,57,18.50
2016,06,20,11,58,18.60
2016,06,20,11,59,18.70
2016,06,20,12,00,18.70
2016,06,20,12,01,18.70
2016,06,20,12,02,18.80
2016,06,20,12,03,18.80
2016,06,20,12,04,18.90
2016,06,20,12,05,19.00
2016,06,20,12,06,19.00
2016,06,20,12,07,19.10
2016,06,20,12,08,19.10
2016,06,20,12,09,19.20
2016,06,20,12,10,19.20
2016,06,20,12,11,19.40
2016,06,20,12,12,19.50
2016,06,20,12,13,19.50
2016,06,20,12,14,19.60
2016,06,20,12,15,19.70
2016,06,20,12,16,19.70
2016,06,20,12,17,19.70
2016,06,20,12,18,19.80
2016,06,20,12,19,19.80
2016,06,20,12,20,19.80
2016,06,20,12,21,19.90
2016,06,20,12,22,19.90
2016,06,20,12,23,20.00
2016,06,20,12,24,20.10
2016,06,20,12,25,20.10
2016,06,20,12,26,20.20
2016,06,20,12,27,20.30
2016,06,20,12,28,20.40
2016,06,20,12,29,20.50
2016,06,20,12,30,20.70
2016,06,20,12,31,20.80
2016,06,20,12,32,20.90
2016,06,20,12,33,20.90
2016,06,20,12,34,21.00
2016,06,20,12,35,21.10
2016,06,20,12,36,21.00
2016,06,20,12,37,20.90
2016,06,20,12,38,20.90
2016,06,20,12,39,20.80
2016,06,20,12,40,20.80
2016,06,20,12,41,20.80
2016,06,20,12,42,20.70
2016,06,20,12,43,20.70
2016,06,20,12,44,20.70
2016,06,20,12,45,20.70
2016,06,20,12,46,20.70
2016,06,20,12,47,20.80
2016,06,20,12,48,20.80
2016,06,20,12,49,20.80
2016,06,20,12,50,20.70
2016,06,20,12,51,20.70
2016,06,20,12,52,20.60
2016,06,20,12,53,20.60
2016,06,20,12,54,20.50
2016,06,20,12,55,20.40
2016,06,20,12,56,20.40
2016,06,20,12,57,20.40
2016,06,20,12,58,20.40
2016,06,20,12,59,20.40
2016,06,20,13,00,20.40
2016,06,20,13,01,20.50
2016,06,20,13,02,20.50
2016,06,20,13,03,20.60
2016,06,20,13,04,20.60
2016,06,20,13,05,20.60
2016,06,20,13,06,20.60
2016,06,20,13,07,20.60
2016,06,20,13,08,20.60
2016,06,20,13,09,20.80
2016,06,20,13,10,20.80
2016,06,20,13,11,20.90
2016,06,20,13,12,21.00
2016,06,20,13,13,21.10
2016,06,20,13,14,21.10
2016,06,20,13,15,21.20
2016,06,20,13,16,21.10
2016,06,20,13,17,21.10
2016,06,20,13,18,21.10
2016,06,20,13,19,21.10
2016,06,20,13,20,21.10
2016,06,20,13,21,21.00
2016,06,20,13,22,21.00
2016,06,20,13,23,21.00
2016,06,20,13,24,21.00
2016,06,20,13,25,21.10
2016,06,20,13,26,21.10
2016,06,20,13,27,21.10
2016,06,20,13,28,21.20
2016,06,20,13,29,21.30
2016,06,20,13,30,21.30
2016,06,20,13,31,21.30
2016,06,20,13,32,21.30
2016,06,20,13,33,21.30
2016,06,20,13,34,21.30
2016,06,20,13,35,21.30
2016,06,20,13,36,21.30
2016,06,20,13,37,21.30
2016,06,20,13,38,21.40
2016,06,20,13,39,21.40
2016,06,20,13,40,21.40
2016,06,20,13,41,21.50
2016,06,20,13,42,21.40
2016,06,20,13,43,21.40
2016,06,20,13,44,21.30
2016,06,20,13,45,21.20
2016,06,20,13,46,21.20
2016,06,20,13,47,21.20
2016,06,20,13,48,21.20
2016,06,20,13,49,21.30
2016,06,20,13,50,21.30
2016,06,20,13,51,21.40
2016,06,20,13,52,21.40
2016,06,20,13,53,21.40
2016,06,20,13,54,21.40
2016,06,20,13,55,21.40
2016,06,20,13,56,21.30
2016,06,20,13,57,21.40
2016,06,20,13,58,21.50
2016,06,20,13,59,21.50
2016,06,20,14,00,21.60
2016,06,20,14,01,21.60
2016,06,20,14,02,21.50
2016,06,20,14,03,21.50
2016,06,20,14,04,21.50
2016,06,20,14,05,21.50
2016,06,20,14,06,21.40
2016,06,20,14,07,21.40
2016,06,20,14,08,21.40
2016,06,20,14,09,21.40
2016,06,20,14,10,21.40
2016,06,20,14,11,21.40
2016,06,20,14,12,21.50
2016,06,20,14,13,21.60
2016,06,20,14,14,21.60
2016,06,20,14,15,21.60
2016,06,20,14,16,21.60
2016,06,20,14,17,21.70
2016,06,20,14,18,21.70
2016,06,20,14,19,21.80
2016,06,20,14,20,21.80
2016,06,20,14,21,21.90
2016,06,20,14,22,22.00
2016,06,20,14,23,22.00
2016,06,20,14,24,22.10
2016,06,20,14,25,22.10
2016,06,20,14,26,22.10
2016,06,20,14,27,22.10
2016,06,20,14,28,22.10
2016,06,20,14,29,22.20
2016,06,20,14,30,22.30
2016,06,20,14,31,22.30
2016,06,20,14,32,22.40
2016,06,20,14,33,22.40
2016,06,20,14,34,22.30
2016,06,20,14,35,22.30
2016,06,20,14,36,22.30
2016,06,20,14,37,22.20
2016,06,20,14,38,22.20
2016,06,20,14,39,22.20
2016,06,20,14,40,22.30
2016,06,20,14,41,22.40
2016,06,20,14,42,22.40
2016,06,20,14,43,22.50
2016,06,20,14,44,22.60
2016,06,20,14,45,22.60
2016,06,20,14,46,22.70
2016,06,20,14,47,22.70
2016,06,20,14,48,22.70
2016,06,20,14,49,22.70
2016,06,20,14,50,22.60
2016,06,20,14,51,22.70
2016,06,20,14,52,22.70
2016,06,20,14,53,22.70
2016,06,20,14,54,22.70
2016,06,20,14,55,22.70
2016,06,20,14,56,22.70
2016,06,20,14,57,22.60
2016,06,20,14,58,22.60
2016,06,20,14,59,22.60
2016,06,20,15,00,22.60
2016,06,20,15,01,22.60
2016,06,20,15,02,22.70
2016,06,20,15,03,22.70
2016,06,20,15,04,22.80
2016,06,20,15,05,22.80
2016,06,20,15,06,22.80
2016,06,20,15,07,22.80
2016,06,20,15,08,22.80
2016,06,20,15,09,22.80
2016,06,20,15,10,22.90
2016,06,20,15,11,22.90
2016,06,20,15,12,22.90
2016,06,20,15,13,22.90
2016,06,20,15,14,22.90
2016,06,20,15,15,23.00
2016,06,20,15,16,23.00
2016,06,20,15,17,23.00
2016,06,20,15,18,23.10
2016,06,20,15,19,23.10
2016,06,20,15,20,23.10
2016,06,20,15,21,23.10
2016,06,20,15,22,23.10
2016,06,20,15,23,23.00
2016,06,20,15,24,23.00
2016,06,20,15,25,23.10
2016,06,20,15,26,23.10
2016,06,20,15,27,23.10
2016,06,20,15,28,23.10
2016,06,20,15,29,23.10
2016,06,20,15,30,23.20
2016,06,20,15,31,23.20
2016,06,20,15,32,23.20
2016,06,20,15,33,23.20
2016,06,20,15,34,23.20
2016,06,20,15,35,23.20
2016,06,20,15,36,23.30
2016,06,20,15,37,23.40
2016,06,20,15,38,23.40
2016,06,20,15,39,23.40
2016,06,20,15,40,23.40
2016,06,20,15,41,23.40
2016,06,20,15,42,23.40
2016,06,20,15,43,23.40
2016,06,20,15,44,23.50
2016,06,20,15,45,23.50
2016,06,20,15,46,23.50
2016,06,20,15,47,23.50
2016,06,20,15,48,23.40
2016,06,20,15,49,23.40
2016,06,20,15,50,23.50
2016,06,20,15,51,23.50
2016,06,20,15,52,23.60
2016,06,20,15,53,23.60
2016,06,20,15,54,23.70
2016,06,20,15,55,23.70
2016,06,20,15,56,23.80
2016,06,20,15,57,23.70
2016,06,20,15,58,23.70
2016,06,20,15,59,23.70
2016,06,20,16,00,23.70
2016,06,20,16,01,23.70
2016,06,20,16,02,23.70
2016,06,20,16,03,23.70
2016,06,20,16,04,23.80
2016,06,20,16,05,23.90
2016,06,20,16,06,23.90
2016,06,20,16,07,24.00
2016,06,20,16,08,24.00
2016,06,20,16,09,24.00
2016,06,20,16,10,24.00
2016,06,20,16,11,23.90
2016,06,20,16,12,23.80
2016,06,20,16,13,23.80
2016,06,20,16,14,23.80
2016,06,20,16,15,23.80
2016,06,20,16,16,23.70
2016,06,20,16,17,23.70
2016,06,20,16,18,23.70
2016,06,20,16,19,23.70
2016,06,20,16,20,23.70
2016,06,20,16,21,23.70
2016,06,20,16,22,23.70
2016,06,20,16,23,23.70
2016,06,20,16,24,23.60
2016,06,20,16,25,23.60
2016,06,20,16,26,23.60
2016,06,20,16,27,23.60
2016,06,20,16,28,23.70
2016,06,20,16,29,23.70
2016,06,20,16,30,23.70
2016,06,20,16,31,23.60
2016,06,20,16,32,23.60
2016,06,20,16,33,23.50
2016,06,20,16,34,23.40
2016,06,20,16,35,23.40
2016,06,20,16,36,23.40
2016,06,20,16,37,23.40
2016,06,20,16,38,23.50
2016,06,20,16,39,23.60
2016,06,20,16,40,23.60
2016,06,20,16,41,23.70
2016,06,20,16,42,23.80
2016,06,20,16,43,23.80
2016,06,20,16,44,23.90
2016,06,20,16,45,24.00
2016,06,20,16,46,24.00
2016,06,20,16,47,24.00
2016,06,20,16,48,24.00
2016,06,20,16,49,24.10
2016,06,20,16,50,24.10
2016,06,20,16,51,24.20
2016,06,20,16,52,24.20
2016,06,20,16,53,24.20
2016,06,20,16,54,24.30
2016,06,20,16,55,24.20
2016,06,20,16,56,24.10
2016,06,20,16,57,24.10
2016,06,20,16,58,24.00
2016,06,20,16,59,23.90
2016,06,20,17,00,23.80
2016,06,20,17,01,23.80
2016,06,20,17,02,23.70
2016,06,20,17,03,23.70
2016,06,20,17,04,23.70
2016,06,20,17,05,23.70
2016,06,20,17,06,23.70
2016,06,20,17,07,23.80
2016,06,20,17,08,23.80
2016,06,20,17,09,23.80
2016,06,20,17,10,23.80
2016,06,20,17,11,23.80
2016,06,20,17,12,23.80
2016,06,20,17,13,23.80
2016,06,20,17,14,23.80
2016,06,20,17,15,23.80
2016,06,20,17,16,23.80
2016,06,20,17,17,23.80
2016,06,20,17,18,23.80
2016,06,20,17,19,23.80
2016,06,20,17,20,23.80
2016,06,20,17,21,23.90
2016,06,20,17,22,23.90
2016,06,20,17,23,24.00